This demonstration page uses our WeatherBlox Daily Observations layout. Learn more.

Hourly Observations for August 8, 2017

Temp ( °F °C ) Dew Point ( °F °C ) Humidity (%) Winds ( mph kmh ) Pressure ( in mb ) Visibility ( mi km ) Precip ( " mm )
12:54 am 00:54 Clear 60 15.6 58 14.4 93 93 N 3 6 30.19 1022 10 16.0934 0 0
1:54 am 01:54 Clear 60 15.6 58 14.4 93 93 N 5 7 30.19 1022 10 16.0934 0 0
2:54 am 02:54 Clear 59 15 57 13.9 93 93 N 5 7 30.18 1022 10 16.0934 0 0
3:54 am 03:54 Clear 58 14.4 56 13.3 93 93 N 6 9 30.19 1022 9 14.48406 0 0
4:54 am 04:54 Clear 57 13.9 55 12.8 93 93 N 6 9 30.19 1022 10 16.0934 0 0
5:54 am 05:54 Clear 56 13.3 55 12.8 97 97 N 5 7 30.19 1022 10 16.0934 0 0
6:54 am 06:54 Mostly Cloudy 57 13.9 55 12.8 93 93 N 5 7 30.2 1023 8 12.87472 0 0
7:54 am 07:54 Sunny 61 16.1 57 13.9 87 87 N 5 7 30.22 1023 10 16.0934 0 0
8:54 am 08:54 Sunny 66 18.9 61 16.1 84 84 NNE 3 6 30.22 1023 10 16.0934 0 0
9:54 am 09:54 Sunny 70 21.1 60 15.6 71 71 SE 3 6 30.21 1023 10 16.0934 0 0
10:54 am 10:54 Sunny 74 23.3 62 16.7 67 67 VRB 5 7 30.21 1023 10 16.0934 0 0
11:54 am 11:54 Sunny 77 25 62 16.7 60 60 S 3 6 30.19 1022 10 16.0934 0 0
12:54 pm 12:54 Mostly Cloudy 78 25.6 61 16.1 56 56 Calm 30.18 1022 10 16.0934 0 0
1:54 pm 13:54 Mostly Cloudy 80 26.7 61 16.1 52 52 SSW 8 13 30.17 1022 10 16.0934 0 0
2:54 pm 14:54 Cloudy 80 26.7 59 15 49 49 VRB 7 11 30.15 1021 10 16.0934 0 0
3:54 pm 15:54 Mostly Cloudy 79 26.1 60 15.6 52 52 W 7 11 30.13 1020 10 16.0934 0 0
4:54 pm 16:54 Mostly Sunny 80 26.7 61 16.1 52 52 E 9 15 30.11 1020 10 16.0934 0 0
5:54 pm 17:54 Partly Cloudy 80 26.7 64 17.8 58 58 ENE 10 17 30.1 1019 10 16.0934 0 0
6:54 pm 18:54 Partly Cloudy 77 25 63 17.2 62 62 E 14 22 30.09 1019 10 16.0934 0 0
7:54 pm 19:54 Sunny 75 23.9 62 16.7 64 64 E 9 15 30.08 1019 10 16.0934 0 0
8:54 pm 20:54 Clear 72 22.2 61 16.1 68 68 SE 7 11 30.09 1019 10 16.0934 0 0
9:54 pm 21:54 Clear 71 21.7 61 16.1 71 71 SE 7 11 30.1 1019 10 16.0934 0 0
10:54 pm 22:54 Clear 67 19.4 61 16.1 81 81 S 7 11 30.11 1020 10 16.0934 0 0
11:54 pm 23:54 Clear 65 18.3 61 16.1 87 87 S 7 11 30.11 1020 10 16.0934 0 0

Powered by AerisWeather